Regional Weather Roundup
Issued by NWS Goodland, KS

Home | Current Version | Previous Version | Graphics & Text | Print | Product List | Glossary On
Versions: 1 2 3 4 5 6 7 8 9 10 11 12 13 14 15 16 17 18 19 20 21 22 23 24 25 26 27 28 29 30 31 32 33 34 35 36 37 38 39 40 41 42 43 44 45 46 47 48 49 50
000
ASUS43 KGLD 102208
RWRGLD

GOODLAND FORECAST AREA HOURLY WEATHER ROUNDUP
NATIONAL WEATHER SERVICE GOODLAND KS
400 PM MDT THU JUL 10 2014

...OFFICIAL OBSERVATIONS...

CITY           SKY/WX    TMP DP  RH WIND       PRES   REMARKS
GOODLAND KS    SUNNY     89  65  44 SE13G22   29.93F
HILL CITY KS   SUNNY     90  66  45 SE16G24   29.91F
IMPERIAL NEB   SUNNY     94  60  32 S21       29.88F
MCCOOK NEB     SUNNY     89  66  46 SE17      29.89F
AKRON CO       SUNNY     92  50  23 S14G24    29.96F
BURLINGTON CO  SUNNY     91  60  35 SE10      29.94F
LIMON CO       SUNNY     92  41  17 SE14G22   30.01F
$$

...UNOFFICIAL OBSERVATIONS...

CITY           SKY/WX    TMP DP  RH WIND       PRES   REMARKS
COLBY KS       SUNNY     90  66  45 SE16      29.93F
GOVE KS          N/A     89  32  13 CALM        N/A
LENORA KS        N/A     87  32  14 MISG        N/A
NORTON KS      SUNNY     90  61  37 SE17G23   29.91S
SHARON SPRINGS   N/A     96  66  37 SW12G23     N/A
ST FRANCIS KS  SUNNY     91  55  29 SE17G23   29.89F
TRIBUNE KS     MOSUNNY   99 N/A N/A SE14G20   29.90
WAKEENEY KS      N/A     90  60  36 MISG        N/A
WRAY CO          N/A     99  54  22 S16       29.90F
YUMA CO          N/A     93  57  29 SE9G16      N/A
$$


USA.gov is the U.S. government's official web portal to all federal, state and local government web resources and services.